Flag for Germany Weather past 2 weeks in Dessau-Rosslau, Saxony-Anhalt, Germany

Now
54 °F

Sunny.


Feels Like: 50 °F
Forecast: 51 / 67 °F
Wind: 13 mph from South

Location: Leipzig-Schkeuditz

Current Time: Apr 25, 2015 at 8:57:23 AM

Latest Report: Apr 25, 2015 at 8:20 AM


Visibility: 10 mi

Pressure: 29.83 "Hg

Humidity: 58%

Dew point: 39 °F

Location of Dessau-RosslauLocation

Historic Weather in Dessau-Rosslau — Graph

°F

Dessau-Rosslau temperature yesterday

Maximum temperature yesterday: 70 °F (at 4:50 PM)
Minimum temperature yesterday: 39 °F (at 5:50 AM)
Average temperature yesterday: 56 °F

Past Weeks' High & Low Weather Summary

 TemperatureHumidityPressure
High73 °F (Apr 15, 2:50 PM)100% (Apr 18, 6:50 AM)30.45 "Hg (Apr 18, 6:50 AM)
Low34 °F (Apr 18, 5:50 AM)23% (Apr 21, 3:50 PM)29.83 "Hg (Apr 25, 2:50 AM)
Average51 °F62%30.15 "Hg
* Reported Apr 10 7:20 AM — Apr 25 7:20 AM, Dessau-Rosslau, Weather by CustomWeather, © 2015

Note: Actual official high and low records may vary slightly from our data, if they occured in-between our weather recording intervals... More about our weather records

Advertising

Dessau-Rosslau weather history for previous 24 hours

 ConditionsComfort  
Time TempWeatherWind HumidityBarometerVisibility
7:20 AM
Sat, Apr 25
50 °FSunny.12 mph62%29.83 "Hg10 mi
6:50 AM48 °FClear.10 mph66%29.83 "Hg10 mi
6:20 AM46 °FClear.10 mph71%29.83 "Hg10 mi
5:20 AM46 °FClear.10 mph71%29.83 "Hg10 mi
4:50 AM46 °FClear.12 mph71%29.83 "Hg10 mi
4:20 AM46 °FClear.12 mph71%29.83 "Hg10 mi
3:50 AM48 °FClear.12 mph66%29.83 "Hg10 mi
3:20 AM48 °FClear.10 mph66%29.83 "Hg10 mi
2:50 AM50 °FClear.9 mph62%29.83 "Hg10 mi
2:20 AM50 °FClear.9 mph62%29.86 "Hg10 mi
1:50 AM54 °FClear.9 mph54%29.86 "Hg10 mi
1:20 AM54 °FClear.9 mph54%29.86 "Hg10 mi
12:50 AM54 °FClear.9 mph54%29.86 "Hg10 mi
12:20 AM54 °FClear.8 mph58%29.86 "Hg10 mi
11:50 PM
Fri, Apr 24
54 °FClear.9 mph58%29.86 "Hg10 mi
11:20 PM57 °FClear.9 mph51%29.86 "Hg10 mi
10:50 PM55 °FClear.8 mph55%29.86 "Hg10 mi
10:20 PM57 °FClear.8 mph51%29.86 "Hg10 mi
9:50 PM55 °FClear.7 mph51%29.86 "Hg10 mi
9:20 PM59 °FSunny.6 mph45%29.86 "Hg10 mi
8:50 PM59 °FSunny.7 mph45%29.86 "Hg10 mi
8:20 PM59 °FSunny.7 mph48%29.86 "Hg10 mi
7:50 PM61 °FSunny.7 mph45%29.86 "Hg10 mi
7:20 PM63 °FSunny.9 mph39%29.86 "Hg10 mi
6:50 PM64 °FSunny.10 mph37%29.86 "Hg10 mi
6:20 PM68 °FSunny.10 mph35%29.86 "Hg10 mi
5:50 PM68 °FSunny.12 mph35%29.86 "Hg10 mi
5:20 PM68 °FSunny.9 mph35%29.86 "Hg10 mi
4:50 PM70 °FSunny.10 mph31%29.86 "Hg10 mi
4:20 PM68 °FSunny.12 mph35%29.89 "Hg10 mi
3:50 PM68 °FSunny.14 mph35%29.89 "Hg10 mi
3:20 PM68 °FSunny.10 mph33%29.89 "Hg10 mi
2:50 PM68 °FSunny.10 mph35%29.92 "Hg10 mi
2:20 PM66 °FSunny.10 mph35%29.92 "Hg10 mi
1:50 PM66 °FSunny.13 mph37%29.92 "Hg10 mi
1:20 PM64 °FSunny.14 mph34%29.95 "Hg10 mi
12:50 PM64 °FSunny.14 mph40%29.95 "Hg10 mi
12:20 PM64 °FSunny.12 mph34%29.95 "Hg10 mi
11:50 AM63 °FSunny.13 mph42%29.95 "Hg10 mi
11:20 AM61 °FSunny.13 mph42%29.98 "Hg10 mi
10:50 AM61 °FSunny.14 mph45%29.98 "Hg10 mi
10:20 AM57 °FSunny.14 mph51%29.98 "Hg10 mi
9:50 AM55 °FSunny.12 mph59%29.98 "Hg10 mi
9:20 AM54 °FSunny.9 mph58%29.98 "Hg10 mi
8:50 AM50 °FSunny.9 mph67%29.98 "Hg10 mi
8:20 AM48 °FSunny.9 mph76%29.98 "Hg10 mi
Weather by CustomWeather, © 2015

See weather overviewHow to use our weather pages